(63) Ausonia
ephemeris date magn radius delta ra dec elong phase
Today20 Jul 20259.62.125 AU1.134 AU21h11m-22°14'162.7°8.2°
Opposition2 Aug 20259.32.136 AU1.124 AU20h57m-22°28'174.9°2.4°
(63) Ausonia - 2025-07-20
astro.vanbuitenen.nl


 
-1 year
-1 month
-1 day
Now
+1 day
+1 month
+1 year

The interactive orbit chart above shows the body's path through the solar system and its position at the given date. Green and blue lines are shown perpendicular to the ecliptic plane: Green if the path is above the ecliptic plane, blue if it is below. (Left-click and drag to rotate the view; Right-click and drag to move the view; Use scroll wheel to zoom in our out.)

The orbital elements of Ausonia are:

            e (Eccentricity)                : 0.1282281
            a (Semimajor axis)              : 2.3949157
            i (Inclination)                 : 5.77292
            Ω (Longitude of ascending node) : 337.68532
            ω (Argument of perihelion)      : 295.67012
            M (Mean anomaly)                : 4.87062
            Epoch                           : 2025 May 05

            L (Longitude of perihelion)     : 273.46936
            B (Latitude of perihelion)      : -5.20149
            P (Orbital period in years)     : 3.71            
        

The light curve chart below shows the estimated development of the minor planet's magnitude.


The all-sky chart below shows the path of the minor planet over the same period as the light curve. The current position is marked yellow.





The following chart shows the path of the minor planet in the next few days. The field of view is optimized for (~10x50) binoculars and finderscopes. A more printer-friendly version of the same chart can be found below.




Ephemerides:
Date       Time       RA (2000)    DEC (2000)    delta   radius  elong  phase   PA    magn
2025-07-20 00:00 UT   21 11 18.1   -22 14 01     1.134    2.125  162.7    8.2   272    9.6 
2025-07-20 06:44 UT   21 11 02.7   -22 14 25     1.133    2.126  163.0    8.0   272    9.6 
2025-07-21 00:00 UT   21 10 22.9   -22 15 24     1.131    2.126  163.8    7.7   273    9.6 
2025-07-22 00:00 UT   21 09 26.7   -22 16 46     1.129    2.127  164.9    7.2   274    9.6 
2025-07-23 00:00 UT   21 08 29.3   -22 18 06     1.128    2.128  166.0    6.6   276    9.5 
2025-07-24 00:00 UT   21 07 30.9   -22 19 24     1.126    2.128  167.1    6.1   278    9.5 
2025-07-25 00:00 UT   21 06 31.6   -22 20 39     1.125    2.129  168.1    5.6   281    9.5 
2025-07-26 00:00 UT   21 05 31.4   -22 21 51     1.124    2.130  169.2    5.1   283    9.5 
2025-07-27 00:00 UT   21 04 30.5   -22 23 00     1.123    2.131  170.2    4.6   287    9.4 
2025-07-28 00:00 UT   21 03 29.0   -22 24 05     1.122    2.132  171.2    4.2   291    9.4 
2025-07-29 00:00 UT   21 02 27.0   -22 25 07     1.122    2.132  172.2    3.7   296    9.4 
2025-07-30 00:00 UT   21 01 24.5   -22 26 03     1.122    2.133  173.0    3.3   302    9.4 
2025-07-31 00:00 UT   21 00 21.6   -22 26 55     1.122    2.134  173.8    2.9   311    9.3 
2025-08-01 00:00 UT   20 59 18.6   -22 27 43     1.123    2.135  174.4    2.7   321    9.3 
2025-08-02 00:00 UT   20 58 15.3   -22 28 25     1.123    2.136  174.8    2.5   333    9.3 
2025-08-03 00:00 UT   20 57 12.1   -22 29 01     1.124    2.137  175.0    2.4   346    9.3 
2025-08-04 00:00 UT   20 56 08.9   -22 29 32     1.125    2.138  174.8    2.5   360    9.3 
2025-08-05 00:00 UT   20 55 05.8   -22 29 57     1.127    2.138  174.4    2.6    12    9.3 
2025-08-06 00:00 UT   20 54 02.9   -22 30 15     1.128    2.139  173.8    2.9    22    9.3 
2025-08-07 00:00 UT   20 53 00.4   -22 30 28     1.130    2.140  173.1    3.3    30    9.4 
2025-08-08 00:00 UT   20 51 58.4   -22 30 34     1.132    2.141  172.2    3.7    37    9.4 
2025-08-09 00:00 UT   20 50 56.8   -22 30 33     1.134    2.142  171.3    4.1    42    9.4 
2025-08-10 00:00 UT   20 49 55.8   -22 30 26     1.137    2.143  170.3    4.6    46    9.5 
2025-08-11 00:00 UT   20 48 55.6   -22 30 12     1.140    2.144  169.3    5.0    50    9.5 
2025-08-12 00:00 UT   20 47 56.1   -22 29 51     1.143    2.145  168.2    5.5    52    9.5 
2025-08-13 00:00 UT   20 46 57.5   -22 29 24     1.146    2.146  167.2    6.0    55    9.6 
2025-08-14 00:00 UT   20 45 59.8   -22 28 49     1.150    2.147  166.1    6.5    57    9.6 
2025-08-15 00:00 UT   20 45 03.1   -22 28 07     1.153    2.148  165.0    7.0    59    9.6 
2025-08-16 00:00 UT   20 44 07.6   -22 27 18     1.157    2.149  163.9    7.5    60    9.6 
2025-08-17 00:00 UT   20 43 13.2   -22 26 23     1.161    2.149  162.8    8.0    61    9.7 
2025-08-18 00:00 UT   20 42 20.0   -22 25 20     1.166    2.150  161.7    8.5    63    9.7 
2025-08-19 00:00 UT   20 41 28.2   -22 24 10     1.170    2.151  160.6    9.0    64    9.7 


    Terminology:
            
    delta:  distance between minor planet and earth in AU
    radius: distance between minor planet and sun in AU
    magn:   magnitude (brightness) estimate    
    ra:     right ascension in hours (24h = 360deg)
    dec:    declination in degrees
    elong:  elongation in degrees (angle sun-earth-minor planet)    
    phase:  phase angle in degrees (angle sun-minor planet-earth)        
    AU:     Astronomical Unit (mean distance between earth and sun: 149597870.7 km
    

Orbital elements provided by the MPC (Minor Planet Center).
Calculations by a modified version of AAPlus, a C# implementation of the AA+ project by PJ Naughter from the algorithms presented in the book "Astronomical Algorithms" by Jean Meeus.
NGC2000 dso catalog and star labels from VizieR as provided by the Strasbourg astronomical Data Center.
Tycho2 catalog from the ESO archive.